Home > Weather > Schärding > Past weeks

Flag for Austria Past Weather in Schärding, Upper Austria, Austria — Yesterday and Last 2 Weeks

Now
60 °F

Cool.


Feels Like: 60 °F
Forecast: 54 / 78 °F
Wind: No wind

Location: Rohrbach

Current Time: Jun 29, 2016 at 12:36:54 AM

Latest Report: Jun 29, 2016 at 12:00 AM


Visibility: N/A

Pressure: 30.02 "Hg

Humidity: 81%

Dew Point: 54 °F

Location of SchärdingLocation

Past Weather in Schärding — Graph

°F

Schärding Temperature Yesterday

Maximum temperature yesterday: 74 °F (at 7:00 PM)
Minimum temperature yesterday: 52 °F (at 6:00 AM)
Average temperature yesterday: 64 °F

High & Low Weather Summary for the Past Weeks

 TemperatureHumidityPressure
High88 °F (Jun 25, 6:00 PM)99% (Jun 21, 4:00 AM)30.29 "Hg (Jun 21, 4:00 AM)
Low49 °F (Jun 18, 6:00 AM)30% (Jun 24, 5:00 PM)29.44 "Hg (Jun 16, 5:00 PM)
Average64 °F76%29.96 "Hg
* Reported Jun 13 11:00 PM — Jun 28 11:00 PM, Schärding, Weather by CustomWeather, © 2016

Note: Actual official high and low records may vary slightly from our data, if they occured in-between our weather recording intervals... More about our weather records

Advertising

Schärding Weather History for the Previous 24 Hours

Scroll right to see more
 ConditionsComfort  
Time TempWeatherWind HumidityBarometerVisibility
11:00 PM
Tue, Jun 28
61 °FCool.No wind78%30.01 "HgN/A
10:00 PM65 °FMild.1 mph68%30.00 "HgN/A
9:00 PM69 °FMild.No wind60%29.98 "HgN/A
8:00 PM73 °FMild.1 mph46%29.96 "HgN/A
7:00 PM74 °FMild.2 mph46%29.97 "HgN/A
6:00 PM73 °FMild.2 mph47%29.98 "HgN/A
5:00 PM73 °FMild.2 mph51%29.98 "HgN/A
4:00 PM72 °FMild.2 mph51%29.99 "HgN/A
3:00 PM73 °FMild.2 mph53%30.01 "HgN/A
2:00 PM71 °FMild.3 mph54%30.03 "HgN/A
1:00 PM70 °FMild.3 mph57%30.06 "HgN/A
12:00 PM66 °FMild.2 mph65%30.08 "HgN/A
11:00 AM66 °FMild.1 mph64%30.08 "HgN/A
10:00 AM64 °FMild.1 mph67%30.09 "HgN/A
9:00 AM60 °FCool.1 mph75%30.11 "HgN/A
8:00 AM56 °FCool.1 mph88%30.13 "HgN/A
7:00 AM55 °FCool.No wind88%30.14 "HgN/A
6:00 AM52 °FCool.No wind94%30.14 "HgN/A
5:00 AM54 °FCool.1 mph90%30.14 "HgN/A
4:00 AM55 °FCool.No wind89%30.13 "HgN/A
3:00 AM55 °FCool.No wind91%30.14 "HgN/A
2:00 AM56 °FCool.1 mph88%30.14 "HgN/A
1:00 AM56 °FCool.1 mph87%30.14 "HgN/A
12:00 AM56 °FCool.No wind89%30.13 "HgN/A
Weather by CustomWeather, © 2016

See weather overviewHow to use our weather pages